Spokane Fairchild, WA

4:24 PM PDT on March 27, 2017 (GMT -0700)
Fairchild Air Force Base

Weather History for KSKA - January, 2014

Change the Weather History Date:

Wednesday, January 15, 2014

  Actual Average Record
Temperature  
Mean Temperature 32 °F -  
Max Temperature 41 °F 31 °F 45 °F (2011)
Min Temperature 24 °F 22 °F -4 °F (2017)
Degree Days  
Heating Degree Days 32    
Moisture  
Dew Point 29 °F    
Average Humidity 92    
Maximum Humidity 100    
Minimum Humidity 70    
Precipitation  
Precipitation 0.00 in - - ()
Sea Level Pressure  
Sea Level Pressure 30.48 in    
Wind  
Wind Speed 3 mph (NNW)    
Max Wind Speed 9 mph    
Max Gust Speed -    
Visibility 6 miles    
Events Fog , Rain    
Averages and records for this station are not official NWS values.
T = Trace of Precipitation, MM = Missing Value Source: NWS Daily Summary

Daily Weather History Graph

Daily Weather History Graph

Search for Another Location

Airport or City:

Trip Planner

Search our weather history database for the weather conditions in past years. The results will help you decide how hot, cold, wet, or windy it might be!

Date:

Astronomy

Jan. 15, 2014 Rise Set
Actual Time 7:34 AM PST 4:26 PM PST
Civil Twilight 6:59 AM PST 5:01 PM PST
Nautical Twilight 6:21 AM PST 5:39 PM PST
Astronomical Twilight 5:44 AM PST 6:16 PM PST
Moon 4:33 PM PST (1/15) 6:49 AM PST (1/15)
Length of Visible Light 10h 01m
Length of Day
8h 52m
Full, 100% of the Moon is Illuminated
Jan 15
Full
Jan 15
Full
Jan 23
Last Quarter
Jan 30
New
Feb 6
First Quarter

Hourly Weather History & Observations

Time (PST) Temp. Windchill Dew Point Humidity Pressure Visibility Wind Dir Wind Speed Gust Speed Precip Events Conditions
12:58 AM 31.8 °F - 30.4 °F 94% 30.49 in 10.0 mi Calm Calm - N/A   Clear
1:58 AM 32.0 °F 27.5 °F 30.6 °F 94% 30.46 in 10.0 mi SSE 4.6 mph - N/A   Clear
2:58 AM 32.9 °F 27.5 °F 30.9 °F 92% 30.46 in 10.0 mi SSW 5.8 mph - N/A   Clear
3:58 AM 32.7 °F - 30.6 °F 92% 30.48 in 10.0 mi Variable 1.2 mph - N/A   Clear
4:21 AM 32.0 °F 27.5 °F 32.0 °F 100% 30.39 in 10.0 mi South 4.6 mph - N/A   Clear
4:40 AM 32.0 °F 26.4 °F 32.0 °F 100% 30.40 in 10.0 mi SW 5.8 mph - N/A   Clear
4:58 AM 32.9 °F 28.5 °F 30.9 °F 92% 30.46 in 10.0 mi South 4.6 mph - 0.00 in   Partly Cloudy
5:28 AM 32.0 °F 24.2 °F 32.0 °F 100% 30.36 in 10.0 mi South 9.2 mph - N/A   Clear
5:58 AM 32.7 °F 29.6 °F 31.1 °F 94% 30.41 in 10.0 mi South 3.5 mph - 0.00 in   Scattered Clouds
6:05 AM 32.0 °F - 32.0 °F 100% 30.36 in 10.0 mi Variable 1.2 mph - N/A   Partly Cloudy
6:58 AM 30.9 °F 25.2 °F 29.8 °F 96% 30.46 in 10.0 mi NNE 5.8 mph - 0.00 in   Mostly Cloudy
7:42 AM 32.0 °F 27.5 °F 30.2 °F 93% 30.40 in 10.0 mi SE 4.6 mph - N/A   Overcast
7:58 AM 30.2 °F 26.7 °F 29.3 °F 96% 30.49 in 10.0 mi SSE 3.5 mph - 0.00 in   Mostly Cloudy
8:06 AM 32.0 °F - 30.2 °F 93% 30.41 in 10.0 mi SE 1.2 mph - N/A   Mostly Cloudy
8:58 AM 31.3 °F - 30.4 °F 96% 30.50 in 10.0 mi SSE 2.3 mph - 0.00 in   Clear
9:58 AM 35.1 °F - 32.7 °F 91% 30.52 in 10.0 mi Variable 2.3 mph - N/A   Partly Cloudy
10:58 AM 37.6 °F 33.1 °F 33.8 °F 86% 30.51 in 10.0 mi ENE 5.8 mph - N/A   Clear
11:14 AM 37.4 °F - 32.0 °F 81% 30.43 in 10.0 mi ESE 2.3 mph - N/A   Clear
11:35 AM 39.2 °F 37.0 °F 32.0 °F 75% 30.43 in 10.0 mi SE 3.5 mph - N/A   Clear
11:58 AM 39.7 °F - 32.7 °F 76% 30.50 in 10.0 mi Variable 2.3 mph - 0.00 in   Clear
12:58 PM 41.7 °F 39.8 °F 33.1 °F 71% 30.51 in 10.0 mi NNW 3.5 mph - N/A   Clear
1:58 PM 41.9 °F 37.5 °F 33.6 °F 72% 30.50 in 10.0 mi NNE 6.9 mph - N/A   Clear
2:51 PM 41.0 °F 38.0 °F 32.0 °F 70% 30.44 in 10.0 mi ENE 4.6 mph - N/A   Clear
2:58 PM 41.4 °F 39.4 °F 33.3 °F 73% 30.51 in 10.0 mi ENE 3.5 mph - 0.00 in   Clear
3:05 PM 41.0 °F 37.1 °F 32.0 °F 70% 30.45 in 10.0 mi NE 5.8 mph - N/A   Clear
3:18 PM 41.0 °F 38.0 °F 32.0 °F 70% 30.45 in 10.0 mi ENE 4.6 mph - N/A   Clear
3:23 PM 41.0 °F 38.0 °F 32.0 °F 70% 30.44 in 10.0 mi ENE 4.6 mph - N/A   Clear
3:38 PM 39.2 °F 35.9 °F 32.0 °F 75% 30.45 in 10.0 mi NE 4.6 mph - N/A   Clear
3:47 PM 39.2 °F 35.9 °F 32.0 °F 75% 30.45 in 10.0 mi NNE 4.6 mph - N/A   Clear
3:58 PM 39.2 °F 34.2 °F 32.4 °F 76% 30.53 in 10.0 mi NE 6.9 mph - 0.00 in   Clear
4:58 PM 35.1 °F 29.3 °F 30.7 °F 84% 30.55 in 10.0 mi NNE 6.9 mph - N/A   Clear
5:13 PM 35.6 °F 29.2 °F 32.0 °F 87% 30.47 in 10.0 mi North 8.1 mph - N/A   Clear
5:34 PM 33.8 °F 27.7 °F 32.0 °F 93% 30.47 in 10.0 mi North 6.9 mph - N/A   Clear
5:39 PM 32.0 °F 24.2 °F 30.2 °F 93% 30.47 in 10.0 mi North 9.2 mph - N/A   Clear
5:49 PM 32.0 °F - 30.2 °F 93% 30.47 in 10.0 mi North 2.3 mph - N/A   Clear
5:58 PM 32.4 °F - 30.0 °F 91% 30.56 in 10.0 mi Calm Calm - 0.00 in   Clear
6:53 PM 32.0 °F 26.4 °F 30.2 °F 93% 30.47 in 10.0 mi NNW 5.8 mph - N/A   Clear
6:58 PM 30.7 °F 26.0 °F 29.5 °F 95% 30.56 in 10.0 mi NW 4.6 mph - 0.00 in   Clear
7:03 PM 32.0 °F 27.5 °F 30.2 °F 93% 30.47 in 10.0 mi NW 4.6 mph - N/A   Clear
7:09 PM 30.2 °F 26.7 °F 28.4 °F 93% 30.46 in 10.0 mi West 3.5 mph - N/A   Clear
7:24 PM 30.2 °F - 28.4 °F 93% 30.48 in 9.0 mi WNW 2.3 mph - N/A   Clear
7:47 PM 30.2 °F - 28.4 °F 93% 30.47 in 7.0 mi WSW 2.3 mph - N/A   Clear
7:58 PM 28.8 °F 25.0 °F 28.0 °F 97% 30.55 in 5.0 mi West 3.5 mph - 0.00 in   Clear
8:01 PM 28.4 °F 24.6 °F 28.4 °F 100% 30.46 in 6.0 mi WSW 3.5 mph - N/A   Clear
8:40 PM 28.4 °F 22.2 °F 26.6 °F 93% 30.48 in 7.0 mi NW 5.8 mph - N/A   Clear
8:49 PM 26.6 °F - 26.6 °F 100% 30.48 in 8.0 mi WNW 2.3 mph - N/A   Clear
8:58 PM 27.5 °F - 27.1 °F 99% 30.57 in 8.0 mi WNW 2.3 mph - 0.00 in   Clear
9:42 PM 26.6 °F - 26.6 °F 100% 30.48 in 1.5 mi WNW 2.3 mph - N/A   Clear
9:43 PM 26.6 °F - 26.6 °F 100% 30.49 in 1.0 mi WNW 2.3 mph - N/A   Clear
9:45 PM 26.6 °F - 26.6 °F 100% 30.49 in 0.8 mi WNW 2.3 mph - N/A   Clear
9:46 PM 26.6 °F - 26.6 °F 100% 30.49 in 0.5 mi WNW 2.3 mph - N/A Fog Light Freezing Fog
9:47 PM 26.6 °F - 26.6 °F 100% 30.49 in 0.5 mi WNW 2.3 mph - N/A Fog Light Freezing Fog
9:48 PM 26.6 °F - 26.6 °F 100% 30.49 in 0.5 mi WNW 2.3 mph - N/A Fog Light Freezing Fog
9:52 PM 26.6 °F - 26.6 °F 100% 30.49 in 0.5 mi WNW 1.2 mph - N/A Fog Light Freezing Fog
9:54 PM 26.6 °F - 26.6 °F 100% 30.49 in 0.5 mi WNW 2.3 mph - N/A Fog Light Freezing Fog
9:56 PM 26.6 °F - 24.8 °F 93% 30.49 in 0.2 mi WNW 1.2 mph - N/A Fog Light Freezing Fog
9:58 PM 26.6 °F - 24.8 °F 93% 30.58 in 0.2 mi WNW 1.2 mph - N/A Fog Light Freezing Fog
10:02 PM 26.6 °F - 24.8 °F 93% 30.49 in 0.2 mi NNW 2.3 mph - N/A Fog Light Freezing Fog
10:08 PM 24.8 °F 20.5 °F 24.8 °F 100% 30.50 in 0.2 mi NNE 3.5 mph - N/A Fog Light Freezing Fog
10:11 PM 24.8 °F - 24.8 °F 100% 30.50 in 0.5 mi NNE 2.3 mph - N/A Fog Light Freezing Fog
10:21 PM 24.8 °F 20.5 °F 24.8 °F 100% 30.50 in 0.5 mi NNW 3.5 mph - N/A Fog Light Freezing Fog
10:29 PM 24.8 °F - 24.8 °F 100% 30.50 in 0.5 mi WNW 2.3 mph - N/A Fog Light Freezing Fog
10:33 PM 24.8 °F - 24.8 °F 100% 30.50 in 0.5 mi WNW 2.3 mph - N/A Fog , Rain Light Freezing Rain
10:36 PM 24.8 °F - 24.8 °F 100% 30.50 in 0.5 mi WNW 2.3 mph - N/A Fog , Rain Light Freezing Rain
10:37 PM 24.8 °F - 24.8 °F 100% 30.50 in 0.5 mi WNW 2.3 mph - N/A Fog Light Freezing Fog
10:57 PM 26.6 °F - 24.8 °F 93% 30.50 in 0.5 mi West 2.3 mph - N/A Fog Light Freezing Fog
10:58 PM 25.9 °F - 25.2 °F 97% 30.58 in 0.5 mi West 2.3 mph - 0.00 in Fog Light Freezing Fog
11:01 PM 26.6 °F - 24.8 °F 93% 30.50 in 0.5 mi WNW 1.2 mph - N/A Fog Light Freezing Fog
11:22 PM 24.8 °F - 24.8 °F 100% 30.50 in 0.5 mi Calm Calm - N/A Fog Light Freezing Fog
11:27 PM 24.8 °F - 24.8 °F 100% 30.50 in 0.5 mi East 1.2 mph - N/A Fog Light Freezing Fog
11:41 PM 24.8 °F - 23.0 °F 93% 30.50 in 0.2 mi ENE 1.2 mph - N/A Fog Light Freezing Fog
11:47 PM 24.8 °F - 23.0 °F 93% 30.50 in 0.2 mi East 2.3 mph - N/A Fog Light Freezing Fog
11:48 PM 24.8 °F 20.5 °F 23.0 °F 93% 30.50 in 0.2 mi East 3.5 mph - N/A Fog Light Freezing Fog
11:54 PM 24.8 °F - 23.0 °F 93% 30.50 in 0.2 mi East 2.3 mph - N/A Fog Light Freezing Fog
11:58 PM 24.8 °F - 23.9 °F 96% 30.58 in 0.2 mi NE 2.3 mph - 0.00 in Fog Light Freezing Fog